SQ5DCP-1 Weather Reports


time (UTC)temp
C
wind
direction
speed
KPH
gust
KPH
rain 1hr
cm
rain 24hr
cm
rain mn
cm
humidity
%
barometer
mb
20260506004526 13 0.0 0.0 0.00 0.00 0.00 52 1006.9
20260506004024 13 0.0 0.0 0.00 0.00 0.00 52 1007.0
20260506003522 13 183 0.0 1.6 0.00 0.00 0.00 52 1007.0
20260506003020 13 0.0 0.0 0.00 0.00 0.00 52 1007.0
20260506002519 13 217 0.0 1.6 0.00 0.00 0.00 52 1007.0
20260506002049 13 192 3.2 6.4 0.00 0.00 0.00 52 1007.0
20260506002017 13 192 3.2 6.4 0.00 0.00 0.00 52 1007.0
20260506001535 13 188 3.2 6.4 0.00 0.00 0.00 51 1007.1
20260506001033 13 174 1.6 6.4 0.00 0.00 0.00 51 1007.1
20260506000532 14 0.0 0.0 0.00 0.00 0.00 51 1007.0
20260506000030 14 206 0.0 1.6 0.00 0.00 0.00 51 1007.0
20260505235528 14 193 1.6 6.4 0.00 0.00 0.00 51 1007.1
20260505235027 14 191 1.6 6.4 0.00 0.00 0.00 50 1007.2
20260505234525 14 189 1.6 6.4 0.00 0.00 0.00 50 1007.2
20260505234023 14 192 3.2 6.4 0.00 0.00 0.00 50 1007.2
20260505233521 14 187 4.8 11.3 0.00 0.00 0.00 50 1007.3
20260505233050 14 190 4.8 9.7 0.00 0.00 0.00 50 1007.1
20260505233019 14 190 4.8 9.7 0.00 0.00 0.00 50 1007.1
20260505232517 14 188 4.8 12.9 0.00 0.00 0.00 50 1007.3
20260505232046 14 186 4.8 9.7 0.00 0.00 0.00 50 1007.2
20260505232015 14 186 4.8 9.7 0.00 0.00 0.00 50 1007.2
20260505231534 15 181 3.2 9.7 0.00 0.00 0.00 50 1007.2
20260505231032 15 186 3.2 6.4 0.00 0.00 0.00 50 1007.2
20260505230531 15 187 3.2 6.4 0.00 0.00 0.00 50 1007.2
20260505230030 15 184 3.2 4.8 0.00 0.00 0.00 49 1007.2
20260505225527 15 188 3.2 6.4 0.00 0.00 0.00 49 1007.1
20260505225116 15 193 3.2 6.4 0.00 0.00 0.00 49 1007.1
20260505225025 15 193 3.2 6.4 0.00 0.00 0.00 49 1007.1
20260505224523 15 189 3.2 4.8 0.00 0.00 0.00 48 1007.1
20260505224021 15 188 1.6 6.4 0.00 0.00 0.00 48 1007.1
20260505223520 15 181 1.6 6.4 0.00 0.00 0.00 48 1007.1
20260505223018 15 184 3.2 9.7 0.00 0.00 0.00 47 1007.1
20260505222516 16 182 3.2 6.4 0.00 0.00 0.00 47 1007.1
20260505222034 16 177 4.8 9.7 0.00 0.00 0.00 47 1007.1
20260505221532 16 176 3.2 6.4 0.00 0.00 0.00 47 1007.2
20260505221031 16 177 3.2 4.8 0.00 0.00 0.00 46 1007.2
20260505220529 16 173 3.2 4.8 0.00 0.00 0.00 46 1007.2
20260505220059 16 177 3.2 4.8 0.00 0.00 0.00 45 1007.3
20260505220027 16 177 3.2 4.8 0.00 0.00 0.00 45 1007.3
20260505215525 16 180 3.2 9.7 0.00 0.00 0.00 45 1007.3
20260505215023 16 188 1.6 4.8 0.00 0.00 0.00 45 1007.3
20260505214521 17 182 3.2 4.8 0.00 0.00 0.00 45 1007.3
20260505214020 17 188 3.2 6.4 0.00 0.00 0.00 45 1007.3
20260505213518 17 184 4.8 6.4 0.00 0.00 0.00 44 1007.2
20260505213047 17 182 4.8 9.7 0.00 0.00 0.00 44 1007.2
20260505213016 17 182 4.8 9.7 0.00 0.00 0.00 44 1007.2
20260505212535 17 190 3.2 6.4 0.00 0.00 0.00 44 1007.2
20260505212033 17 181 3.2 6.4 0.00 0.00 0.00 44 1007.1
20260505211531 17 184 4.8 9.7 0.00 0.00 0.00 44 1007.1
20260505211029 17 178 4.8 9.7 0.00 0.00 0.00 43 1007.1
20260505210527 17 178 4.8 9.7 0.00 0.00 0.00 43 1007.1
20260505210027 18 185 4.8 9.7 0.00 0.00 0.00 43 1007.2
20260505205524 18 182 3.2 4.8 0.00 0.00 0.00 42 1007.1
20260505205022 18 175 3.2 4.8 0.00 0.00 0.00 42 1007.1
20260505204520 18 181 3.2 4.8 0.00 0.00 0.00 42 1007.1
20260505204049 18 181 3.2 6.4 0.00 0.00 0.00 42 1007.1
20260505204018 18 181 3.2 6.4 0.00 0.00 0.00 42 1007.1
20260505203516 18 186 4.8 9.7 0.00 0.00 0.00 42 1007.1
20260505203035 18 195 3.2 6.4 0.00 0.00 0.00 42 1007.1
20260505202534 18 182 4.8 11.3 0.00 0.00 0.00 43 1007.0
20260505202031 18 181 3.2 6.4 0.00 0.00 0.00 42 1007.0
20260505201529 18 206 1.6 4.8 0.00 0.00 0.00 42 1006.9
20260505201027 18 183 4.8 11.3 0.00 0.00 0.00 43 1006.9
20260505200526 18 186 3.2 6.4 0.00 0.00 0.00 43 1007.0
20260505200025 18 178 4.8 9.7 0.00 0.00 0.00 43 1006.9
20260505195523 18 174 3.2 4.8 0.00 0.00 0.00 42 1006.9
20260505195020 19 177 0.0 1.6 0.00 0.00 0.00 42 1006.8
20260505194518 19 177 0.0 1.6 0.00 0.00 0.00 41 1006.7
20260505194017 19 177 1.6 3.2 0.00 0.00 0.00 41 1006.7
20260505193535 19 177 1.6 3.2 0.00 0.00 0.00 40 1006.8
20260505193032 20 178 1.6 3.2 0.00 0.00 0.00 40 1006.7
20260505192531 20 177 1.6 3.2 0.00 0.00 0.00 39 1006.8
20260505192029 20 174 1.6 3.2 0.00 0.00 0.00 39 1006.8
20260505191527 20 173 3.2 3.2 0.00 0.00 0.00 38 1006.8
20260505191026 20 173 3.2 3.2 0.00 0.00 0.00 38 1006.9
20260505190523 21 177 1.6 4.8 0.00 0.00 0.00 38 1006.8
20260505190021 21 180 1.6 3.2 0.00 0.00 0.00 38 1006.8
20260505185520 21 175 0.0 3.2 0.00 0.00 0.00 37 1006.8
20260505185018 21 177 0.0 4.8 0.00 0.00 0.00 37 1006.8
20260505184516 21 168 0.0 1.6 0.00 0.00 0.00 37 1006.8
20260505184034 21 161 0.0 1.6 0.00 0.00 0.00 37 1006.7
20260505183533 22 171 0.0 3.2 0.00 0.00 0.00 36 1006.8
20260505183031 22 166 0.0 3.2 0.00 0.00 0.00 35 1006.8
20260505182529 22 0.0 0.0 0.00 0.00 0.00 35 1006.7
20260505182027 22 0.0 0.0 0.00 0.00 0.00 34 1006.8
20260505181525 22 0.0 0.0 0.00 0.00 0.00 34 1006.7
20260505181023 23 0.0 0.0 0.00 0.00 0.00 34 1006.8
20260505180522 23 166 1.6 4.8 0.00 0.00 0.00 33 1006.7
20260505180019 23 173 1.6 3.2 0.00 0.00 0.00 33 1006.8
20260505175517 23 176 1.6 3.2 0.00 0.00 0.00 32 1006.9
20260505175036 23 177 1.6 3.2 0.00 0.00 0.00 32 1006.8
20260505174534 23 161 1.6 6.4 0.00 0.00 0.00 32 1006.7
20260505174032 23 167 1.6 9.7 0.00 0.00 0.00 32 1006.7
20260505173530 23 160 1.6 4.8 0.00 0.00 0.00 32 1006.7
20260505173028 23 163 3.2 6.4 0.00 0.00 0.00 32 1006.7
20260505172525 23 162 3.2 6.4 0.00 0.00 0.00 32 1006.7
20260505172024 24 167 3.2 4.8 0.00 0.00 0.00 31 1006.8
20260505171522 24 171 3.2 6.4 0.00 0.00 0.00 31 1006.7
20260505171020 24 171 3.2 9.7 0.00 0.00 0.00 31 1006.7
20260505170518 24 159 1.6 6.4 0.00 0.00 0.00 31 1006.7
20260505170049 24 177 1.6 6.4 0.00 0.00 0.00 30 1006.8
20260505170016 24 177 1.6 6.4 0.00 0.00 0.00 30 1006.8
20260505165534 24 179 3.2 4.8 0.00 0.00 0.00 30 1006.8
20260505165032 24 171 1.6 4.8 0.00 0.00 0.00 30 1006.9
20260505164530 24 149 1.6 6.4 0.00 0.00 0.00 29 1006.8
20260505164029 24 144 0.0 3.2 0.00 0.00 0.00 28 1006.9
20260505163527 24 172 1.6 6.4 0.00 0.00 0.00 28 1006.8
20260505163043 25 156 3.2 6.4 0.00 0.00 0.00 28 1007.0
20260505163025 24 176 1.6 6.4 0.00 0.00 0.00 28 1006.9
20260505162525 25 156 3.2 6.4 0.00 0.00 0.00 28 1007.0
20260505162021 25 168 3.2 6.4 0.00 0.00 0.00 27 1007.0
20260505161519 25 164 3.2 4.8 0.00 0.00 0.00 27 1007.0
20260505161049 25 168 96.6 6.4 0.00 0.00 0.00 27 1007.1
20260505161017 25 168 3.2 6.4 0.00 0.00 0.00 27 1007.1
20260505160536 25 143 1.6 4.8 0.00 0.00 0.00 27 1007.1
20260505153022 25 135 3.2 9.7 0.00 0.00 0.00 26 1007.4
20260505152520 25 161 1.6 4.8 0.00 0.00 0.00 26 1007.5
20260505152018 25 171 3.2 6.4 0.00 0.00 0.00 25 1007.5
20260505151516 25 171 6.4 14.5 0.00 0.00 0.00 24 1007.6
20260505151035 25 180 4.8 14.5 0.00 0.00 0.00 25 1007.7
20260505150532 25 180 6.4 14.5 0.00 0.00 0.00 25 1007.7
20260505140530 26 178 8.0 20.9 0.00 0.00 0.00 24 1008.1
20260505125022 26 174 9.7 17.7 0.00 0.00 0.00 26 1008.7
20260505124519 26 148 6.4 20.9 0.00 0.00 0.00 27 1008.6
20260505124101 26 172 4.8 11.3 0.00 0.00 0.00 27 1008.7
20260505124017 26 172 4.8 11.3 0.00 0.00 0.00 27 1008.7
20260505123516 26 197 4.8 14.5 0.00 0.00 0.00 27 1008.9
20260505123034 26 206 3.2 9.7 0.00 0.00 0.00 27 1008.9
20260505122533 26 247 6.4 16.1 0.00 0.00 0.00 25 1009.0
20260505122030 26 192 8.0 20.9 0.00 0.00 0.00 25 1009.0
20260505121529 26 252 4.8 12.9 0.00 0.00 0.00 24 1009.0
20260505121026 26 213 8.0 20.9 0.00 0.00 0.00 24 1009.0
20260505120525 27 209 11.3 22.5 0.00 0.00 0.00 24 1009.1
20260505120023 27 189 6.4 20.9 0.00 0.00 0.00 26 1009.0
20260505115521 27 223 6.4 16.1 0.00 0.00 0.00 25 1009.1
20260505115021 27 184 12.9 27.4 0.00 0.00 0.00 25 1009.1
20260505114517 27 188 8.0 17.7 0.00 0.00 0.00 25 1009.2
20260505114035 27 189 9.7 20.9 0.00 0.00 0.00 25 1009.3
20260505113534 26 230 6.4 16.1 0.00 0.00 0.00 26 1009.3
20260505113032 26 200 6.4 12.9 0.00 0.00 0.00 26 1009.3
20260505112529 27 177 8.0 22.5 0.00 0.00 0.00 25 1009.4
20260505112027 27 225 9.7 17.7 0.00 0.00 0.00 24 1009.5
20260505111526 27 208 9.7 27.4 0.00 0.00 0.00 25 1009.5
20260505111024 27 217 8.0 27.4 0.00 0.00 0.00 24 1009.5
20260505110521 27 231 9.7 24.1 0.00 0.00 0.00 24 1009.6
20260505102100 26 229 8.0 17.7 0.00 0.00 0.00 28 1009.9
20260505102024 26 229 8.0 17.7 0.00 0.00 0.00 28 1009.9
20260505101522 26 240 6.4 14.5 0.00 0.00 0.00 28 1010.1
20260505101021 26 205 9.7 20.9 0.00 0.00 0.00 27 1010.1
20260505100518 26 220 9.7 22.5 0.00 0.00 0.00 27 1010.0
20260505100148 26 188 9.7 24.1 0.00 0.00 0.00 28 1010.2
20260505100017 26 188 9.7 24.1 0.00 0.00 0.00 28 1010.2
20260505095535 26 185 8.0 20.9 0.00 0.00 0.00 28 1010.3
20260505095033 26 193 12.9 27.4 0.00 0.00 0.00 27 1010.3
20260505094531 26 200 9.7 22.5 0.00 0.00 0.00 28 1010.4
20260505094029 26 180 11.3 24.1 0.00 0.00 0.00 29 1010.3
20260505093528 26 177 12.9 27.4 0.00 0.00 0.00 28 1010.4
20260505093026 26 183 11.3 24.1 0.00 0.00 0.00 29 1010.4
20260505092524 26 227 9.7 20.9 0.00 0.00 0.00 30 1010.4
20260505092022 25 244 8.0 22.5 0.00 0.00 0.00 32 1010.4
20260505091520 25 186 9.7 24.1 0.00 0.00 0.00 32 1010.5
20260505091019 25 204 8.0 22.5 0.00 0.00 0.00 31 1010.5
20260505090517 25 191 8.0 14.5 0.00 0.00 0.00 32 1010.6
20260505090035 25 212 9.7 24.1 0.00 0.00 0.00 32 1010.5
20260505085533 25 228 8.0 22.5 0.00 0.00 0.00 33 1010.6
20260505085031 25 221 6.4 16.1 0.00 0.00 0.00 33 1010.7
20260505084530 24 251 8.0 14.5 0.00 0.00 0.00 32 1010.7
20260505084027 24 260 6.4 14.5 0.00 0.00 0.00 32 1010.8
20260505083526 24 234 8.0 16.1 0.00 0.00 0.00 32 1010.9
20260505083024 23 185 4.8 12.9 0.00 0.00 0.00 33 1010.9
20260505082522 23 228 8.0 17.7 0.00 0.00 0.00 32 1011.0
20260505082020 23 198 8.0 17.7 0.00 0.00 0.00 32 1010.9
20260505081519 23 222 8.0 17.7 0.00 0.00 0.00 33 1010.9
20260505081016 23 237 8.0 24.1 0.00 0.00 0.00 33 1011.0
20260505080535 23 269 4.8 16.1 0.00 0.00 0.00 33 1011.0
20260505080034 22 278 6.4 20.9 0.00 0.00 0.00 34 1011.0
20260505075531 22 251 8.0 14.5 0.00 0.00 0.00 34 1011.0
20260505075030 22 232 8.0 17.7 0.00 0.00 0.00 35 1011.1
20260505074528 22 256 4.8 16.1 0.00 0.00 0.00 34 1011.1
20260505074026 22 249 9.7 20.9 0.00 0.00 0.00 34 1011.1
20260505073524 21 249 8.0 16.1 0.00 0.00 0.00 35 1011.2
20260505073022 21 265 9.7 25.7 0.00 0.00 0.00 35 1011.2
20260505072520 21 243 8.0 14.5 0.00 0.00 0.00 38 1011.2
20260505072018 21 239 3.2 12.9 0.00 0.00 0.00 39 1011.2
20260505071517 20 243 6.4 14.5 0.00 0.00 0.00 40 1011.2
20260505071035 20 203 6.4 14.5 0.00 0.00 0.00 42 1011.4
20260505070533 20 206 4.8 14.5 0.00 0.00 0.00 42 1011.3
20260505070031 20 250 3.2 14.5 0.00 0.00 0.00 43 1011.4
20260505065530 19 227 6.4 16.1 0.00 0.00 0.00 43 1011.3
20260505065028 19 214 4.8 14.5 0.00 0.00 0.00 44 1011.4
20260505064526 18 216 3.2 9.7 0.00 0.00 0.00 46 1011.4
20260505064024 18 228 3.2 9.7 0.00 0.00 0.00 46 1011.5
20260505063522 18 226 3.2 9.7 0.00 0.00 0.00 46 1011.5
20260505063021 18 240 4.8 11.3 0.00 0.00 0.00 46 1011.5
20260505062519 17 226 6.4 16.1 0.00 0.00 0.00 46 1011.5
20260505062049 17 264 4.8 12.9 0.00 0.00 0.00 47 1011.6
20260505062016 17 264 4.8 12.9 0.00 0.00 0.00 47 1011.6
20260505061535 17 235 4.8 9.7 0.00 0.00 0.00 48 1011.6
20260505061034 17 246 6.4 16.1 0.00 0.00 0.00 48 1011.6
20260505060532 16 220 4.8 12.9 0.00 0.00 0.00 50 1011.5
20260505060030 16 192 3.2 6.4 0.00 0.00 0.00 52 1011.5
20260505055528 16 188 1.6 6.4 0.00 0.00 0.00 52 1011.6
20260505055026 15 184 3.2 6.4 0.00 0.00 0.00 53 1011.5
20260505054524 15 213 1.6 4.8 0.00 0.00 0.00 54 1011.5
20260505054023 15 210 1.6 4.8 0.00 0.00 0.00 54 1011.6
20260505053522 15 218 3.2 9.7 0.00 0.00 0.00 55 1011.6
20260505053019 14 203 1.6 6.4 0.00 0.00 0.00 56 1011.6
20260505052518 14 203 1.6 9.7 0.00 0.00 0.00 57 1011.7
20260505052035 13 211 1.6 4.8 0.00 0.00 0.00 59 1011.7
20260505051533 13 193 3.2 9.7 0.00 0.00 0.00 60 1011.7
20260505051032 13 184 1.6 4.8 0.00 0.00 0.00 61 1011.7
20260505050530 12 189 0.0 3.2 0.00 0.00 0.00 62 1011.6
20260505041531 11 0.0 0.0 0.00 0.00 0.00 64 1011.6
20260505041031 11 0.0 0.0 0.00 0.00 0.00 64 1011.6
20260505040528 11 0.0 0.0 0.00 0.00 0.00 64 1011.7
20260505040026 11 0.0 0.0 0.00 0.00 0.00 64 1011.6
20260505035524 11 0.0 0.0 0.00 0.00 0.00 64 1011.6
20260505035022 11 0.0 0.0 0.00 0.00 0.00 64 1011.6
20260505034520 11 0.0 0.0 0.00 0.00 0.00 64 1011.7
20260505034018 11 0.0 0.0 0.00 0.00 0.00 64 1011.6
20260505033517 11 0.0 0.0 0.00 0.00 0.00 64 1011.6
20260505033035 11 0.0 0.0 0.00 0.00 0.00 63 1011.7
20260505032533 11 0.0 0.0 0.00 0.00 0.00 63 1011.6
20260505032049 11 0.0 0.0 0.00 0.00 0.00 63 1011.6
20260505032031 11 0.0 0.0 0.00 0.00 0.00 63 1011.6
20260505031529 11 0.0 0.0 0.00 0.00 0.00 63 1011.7
20260505031028 11 0.0 0.0 0.00 0.00 0.00 63 1011.7
20260505030526 11 0.0 0.0 0.00 0.00 0.00 63 1011.7
20260505030024 11 0.0 0.0 0.00 0.00 0.00 62 1011.7
20260505025522 11 0.0 0.0 0.00 0.00 0.00 62 1011.7
20260505025020 12 0.0 0.0 0.00 0.00 0.00 61 1011.8
20260505024518 12 0.0 0.0 0.00 0.00 0.00 61 1011.9
20260505024016 12 0.0 0.0 0.00 0.00 0.00 61 1011.9
20260505023535 12 0.0 0.0 0.00 0.00 0.00 61 1011.9
20260505023033 12 0.0 0.0 0.00 0.00 0.00 61 1011.9
20260505022531 12 0.0 0.0 0.00 0.00 0.00 61 1012.0
20260505022029 12 0.0 0.0 0.00 0.00 0.00 61 1012.0
20260505021528 12 0.0 0.0 0.00 0.00 0.00 60 1012.0
20260505021026 12 0.0 0.0 0.00 0.00 0.00 60 1011.9
20260505020525 12 0.0 0.0 0.00 0.00 0.00 60 1012.0
20260505020022 12 0.0 0.0 0.00 0.00 0.00 60 1012.0
20260505015520 12 0.0 0.0 0.00 0.00 0.00 60 1011.9
20260505015019 12 0.0 0.0 0.00 0.00 0.00 60 1012.1
20260505014517 12 0.0 0.0 0.00 0.00 0.00 59 1012.0
20260505014035 12 0.0 0.0 0.00 0.00 0.00 59 1012.1
20260505013534 13 0.0 0.0 0.00 0.00 0.00 59 1012.1
20260505013032 13 0.0 0.0 0.00 0.00 0.00 58 1012.1
20260505012530 13 0.0 0.0 0.00 0.00 0.00 58 1012.1
20260505012028 13 0.0 0.0 0.00 0.00 0.00 58 1012.2
20260505011526 13 0.0 0.0 0.00 0.00 0.00 58 1012.2
20260505011025 13 0.0 0.0 0.00 0.00 0.00 57 1012.2
20260505010523 13 0.0 0.0 0.00 0.00 0.00 57 1012.3
20260505010021 13 0.0 0.0 0.00 0.00 0.00 57 1012.3
20260505005520 13 0.0 0.0 0.00 0.00 0.00 57 1012.3
20260505005018 13 0.0 0.0 0.00 0.00 0.00 57 1012.3